Regional Weather Roundup
Issued by NWS Cleveland, OH

Home | Current Version | Previous Version | Text Only | Print | Product List | Glossary Off
Versions: 1 2 3 4 5 6 7 8 9 10 11 12 13 14 15 16 17 18 19 20 21 22 23 24 25 26 27 28 29 30 31 32 33 34 35 36 37 38 39 40 41 42 43 44 45 46 47 48 49 50

000
ASUS41 KCLE 010910
RWRCLE
OHIO REGIONAL WEATHER ROUNDUP
NATIONAL WEATHER SERVICE CLEVELAND, OH
500 AM EDT WED OCT 01 2014

NOTE: "FAIR" INDICATES FEW OR NO CLOUDS BELOW 12,000 FEET WITH NO
SIGNIFICANT WEATHER AND/OR OBSTRUCTIONS TO VISIBILITY.

OHZ001>008-015>018-024>027-034-035-043-044-011000-
   NORTHWEST OHIO

CITY           SKY/WX    TMP DP  RH WIND       PRES   REMARKS
DEFIANCE       MOCLDY    51  47  86 NE6       30.02S
FINDLAY        CLOUDY    54  49  83 N7        30.00S
TOLEDO EXPRESS CLEAR     48  46  93 CALM      30.01F
TOLEDO EXEC    PTCLDY    49  46  90 NW5       30.02S
LIMA           PTCLDY    51  49  92 NE3       30.00S
$$

OHZ009>014-019>023-028>033-038-089-011000-
   NORTHEAST OHIO

CITY           SKY/WX    TMP DP  RH WIND       PRES   REMARKS
CLE-HOPKINS    CLOUDY    57  54  89 CALM      30.02R
CLE-LAKEFRONT  CLOUDY    59  54  83 E3        29.99S
CUY CO. ARPT   NOT AVBL
LORAIN-ELYRIA  CLOUDY    54  51  90 CALM      30.01R
ASHTABULA      FOG       47  46  97 CALM      30.00S VSB 1/4
AKRON-CANTON   CLOUDY    56  52  86 CALM      29.99S
WOOSTER        CLOUDY    56  52  86 CALM      30.00F
MANSFIELD      FOG       45  45 100 CALM      30.00S VSB 1/4
YOUNGSTOWN     FOG       54  54 100 NE3       29.99R VSB 1/8
$$

OHZ042-051>053-060>062-070>072-077>081-011000-
  SOUTHWEST OHIO

CITY           SKY/WX    TMP DP  RH WIND       PRES   REMARKS
CINC-COVINGTON CLEAR     53  48  83 NE3       29.98S
CINC-LUNKEN    CLEAR     47  46  97 CALM      30.00S
HAMILTON       CLEAR     42  41  96 CALM      30.01R
DAYTON         FOG       46  45  96 N5        30.01R VSB 1/4
WRIGHT-PAT AFB PTCLDY    46  45  93 CALM      30.00S
DAYTON GENERAL CLEAR     45  44  97 NE6       29.99R
WILMINGTON     CLEAR     44  43  96 NE6       29.99R FOG
$$

OHZ036-037-039>041-045>050-054>059-063>069-073>076-082>088-011000-
  CENTRAL AND SOUTHEAST OHIO

CITY           SKY/WX    TMP DP  RH WIND       PRES   REMARKS
COLUMBUS       MOCLDY    50  48  93 N3        29.99R
OSU AIRPORT    CLOUDY    49  48  97 N3        30.00R FOG
BOLTON FIELD   CLOUDY    49  49 100 N5        30.00S FOG
RICKENBACK AFB MOCLDY    49  49  97 N5        29.99R
NEWARK         CLOUDY    52  50  93 CALM      29.99S FOG
MARION         FOG       47  46  97 CALM      30.00S VSB 1/4
LANCASTER      CLOUDY    50  49  96 CALM      30.00R
ZANESVILLE     CLOUDY    55  52  89 NW3       29.98S FOG
NEW PHILLY     CLOUDY    56  54  93 N3        29.99S
$$



USA.gov is the U.S. government's official web portal to all federal, state and local government web resources and services.